Hofstra University South Campus NY US WEATHERSTEM current weather conditions

sailwx.info

Wind from 164 at 1 knots gusting 10

Air temperature 20.8° C
Dewpoint 20.2° C

Last reported at 2020-Sep-28 12:50 UTC.
Time now 2020-Sep-28 14:03 UTC

Location: N 40°43' W 073°36'.
View on Google Maps.

See reports from other nearby stations

  
Tides and Currents Weather Stations Pressure Air Temp Water Temp Dewpoint Dewpoint Depression Visibility Wind Speed Wind Dir Waves Ship Positions
date/time (UTC)wind fromknots sea level pressurealtimeterstation pressurevisibilityair tempwater tempwave heightnotes
2020-Sep-28 12:50 164 1 gusting 10 20.8
2020-Sep-28 12:30 139 4 gusting 8 20.6
2020-Sep-28 12:20 194 5 gusting 9 20.4
2020-Sep-28 12:10 188 3 gusting 8 20.3
2020-Sep-28 12:00 161 4 gusting 10 20.3
2020-Sep-28 11:50 192 6 gusting 11 20.2
2020-Sep-28 11:30 188 3 gusting 13 20.2
2020-Sep-28 11:20 164 5 gusting 9 20.2
2020-Sep-28 11:10 172 6 gusting 11 20.2
2020-Sep-28 11:00 143 6 gusting 12 20.3
2020-Sep-28 10:50 180 4 gusting 9 20.3
2020-Sep-28 10:30 144 1 gusting 10 20.3
2020-Sep-28 10:20 196 9 gusting 14 20.2
2020-Sep-28 10:10 135 6 gusting 8 20.2
2020-Sep-28 10:00 139 4 gusting 12 20.1
2020-Sep-28 09:50 180 6 gusting 11 20.1
2020-Sep-28 09:30 154 8 gusting 12 20.1
2020-Sep-28 09:20 210 6 gusting 13 20.1
2020-Sep-28 09:10 165 4 gusting 11 20.2
2020-Sep-28 09:00 178 8 gusting 13 20.2
2020-Sep-28 08:50 169 9 gusting 14 20.2
2020-Sep-28 08:30 163 5 gusting 16 20.3
2020-Sep-28 08:20 139 8 gusting 14 20.3
2020-Sep-28 08:10 190 7 gusting 17 20.4
2020-Sep-28 08:00 169 5 gusting 15 20.5
2020-Sep-28 07:50 194 5 gusting 13 20.6
2020-Sep-28 07:30 154 3 gusting 16 20.7
2020-Sep-28 07:20 143 6 gusting 12 20.8
2020-Sep-28 07:10 183 10 gusting 11 20.8
2020-Sep-28 07:00 149 1 gusting 10 20.8
2020-Sep-28 06:50 170 5 gusting 9 20.8
2020-Sep-28 06:30 142 4 gusting 12 20.8
2020-Sep-28 06:20 192 8 gusting 13 20.8
2020-Sep-28 06:10 188 8 gusting 12 20.8
2020-Sep-28 06:00 156 8 gusting 16 20.8
2020-Sep-28 05:50 140 8 gusting 13 20.8
2020-Sep-28 05:30 147 10 gusting 13 20.7
2020-Sep-28 05:20 160 6 gusting 13 20.7
2020-Sep-28 05:10 138 7 gusting 15 20.7
2020-Sep-28 05:00 136 4 gusting 15 20.7
2020-Sep-28 04:50 119 9 gusting 12 20.7
2020-Sep-28 04:30 111 9 gusting 13 20.7
2020-Sep-28 04:20 109 2 gusting 11 20.8
2020-Sep-28 04:10 138 1 gusting 10 20.8
2020-Sep-28 03:50 134 3 gusting 6 20.9
2020-Sep-28 03:30 140 4 gusting 9 20.9
2020-Sep-28 03:20 133 2 gusting 10 20.9
2020-Sep-28 03:10 121 4 gusting 12 20.9
2020-Sep-28 03:00 150 2 gusting 13 21.0
2020-Sep-28 02:50 126 6 gusting 10 21.2
2020-Sep-28 02:30 111 5 gusting 9 21.5
2020-Sep-28 02:20 103 5 gusting 8 21.6
2020-Sep-28 02:10 110 2 gusting 7 21.7
2020-Sep-28 02:00 137 4 gusting 10 21.7
2020-Sep-28 01:50 098 5 gusting 11 21.7
2020-Sep-28 01:30 094 8 gusting 11 22.1
2020-Sep-28 01:20 130 3 gusting 11 22.2
2020-Sep-28 01:10 116 5 gusting 9 22.1
2020-Sep-28 00:50 096 5 gusting 7 22.2
2020-Sep-28 00:30 095 2 gusting 5 22.2
2020-Sep-28 00:20 094 1 gusting 7 22.2
2020-Sep-28 00:10 107 5 gusting 7 22.2
2020-Sep-28 00:00 104 2 gusting 6 22.3
2020-Sep-27 23:50 106 0 gusting 7 22.3
2020-Sep-27 23:30 100 3 gusting 6 22.6
2020-Sep-27 23:20 103 2 gusting 6 22.6
2020-Sep-27 23:10 103 0 gusting 6 22.7
2020-Sep-27 23:00 107 3 gusting 6 22.7
2020-Sep-27 22:50 110 1 gusting 6 22.8
2020-Sep-27 22:30 099 1 gusting 7 22.8
2020-Sep-27 22:20 127 1 gusting 7 22.9
2020-Sep-27 22:10 126 1 gusting 6 22.9
2020-Sep-27 22:00 123 4 gusting 7 22.9
2020-Sep-27 21:50 144 3 gusting 8 22.9
2020-Sep-27 21:30 113 3 gusting 9 23.1
2020-Sep-27 21:20 139 1 gusting 13 23.2
2020-Sep-27 21:10 130 10 gusting 13 23.8
2020-Sep-27 21:00 100 10 gusting 11 24.3
2020-Sep-27 20:50 136 6 gusting 12 24.7
2020-Sep-27 20:30 128 4 gusting 10 25.1
2020-Sep-27 20:20 163 3 gusting 8 25.4
2020-Sep-27 20:10 155 2 gusting 8 25.4
2020-Sep-27 20:00 150 2 gusting 8 25.3
2020-Sep-27 19:50 107 3 gusting 10 25.7
2020-Sep-27 19:30 128 6 gusting 6 25.7
2020-Sep-27 19:20 123 3 gusting 7 25.5
2020-Sep-27 19:10 166 5 gusting 6 25.3
2020-Sep-27 19:00 205 3 gusting 7 25.1
2020-Sep-27 18:50 143 5 gusting 7 25.2
2020-Sep-27 18:30 132 2 gusting 6 24.9
2020-Sep-27 18:20 162 3 gusting 6 24.9
2020-Sep-27 18:10 196 6 gusting 8 25.0
2020-Sep-27 18:00 225 2 gusting 8 25.2
2020-Sep-27 17:50 202 1 gusting 8 25.8
2020-Sep-27 17:30 138 4 gusting 6 24.9
2020-Sep-27 17:20 144 2 gusting 8 24.5
2020-Sep-27 17:10 182 3 gusting 6 24.4
2020-Sep-27 17:00 148 3 gusting 6 24.1
2020-Sep-27 16:50 178 5 gusting 8 24.0
2020-Sep-27 16:30 190 6 gusting 9 24.1
2020-Sep-27 16:20 193 5 gusting 6 24.1
2020-Sep-27 16:10 174 1 gusting 7 23.9
2020-Sep-27 16:00 107 1 gusting 6 23.9
2020-Sep-27 15:50 125 4 gusting 6 23.6
2020-Sep-27 15:30 164 6 gusting 9 23.4
2020-Sep-27 15:10 135 2 gusting 7 22.8
2020-Sep-27 15:00 137 6 gusting 8 23.1
2020-Sep-27 14:50 157 2 gusting 5 22.9
2020-Sep-27 14:30 084 2 gusting 6 22.1
2020-Sep-27 14:20 150 5 gusting 6 22.1
2020-Sep-27 14:10 173 0 gusting 3 21.9
2020-Sep-27 14:00 176 0 gusting 4 21.6
2020-Sep-27 13:50 121 3 gusting 3 21.3
2020-Sep-27 13:30 114 2 gusting 5 20.9
2020-Sep-27 13:20 092 0 gusting 1 20.7
2020-Sep-27 13:10 090 1 gusting 3 20.4
2020-Sep-27 13:00 096 2 gusting 5 20.5
2020-Sep-27 12:50 091 1 gusting 3 20.3
2020-Sep-27 12:30 091 1 gusting 3 20.1
2020-Sep-27 12:20 090 2 gusting 3 20.0
2020-Sep-27 12:10 072 0 gusting 3 19.8
2020-Sep-27 12:00 076 2 gusting 3 19.8
2020-Sep-27 11:50 071 2 gusting 3 19.7
2020-Sep-27 11:30 19.6
2020-Sep-27 11:20 19.5
2020-Sep-27 11:10 078 2 gusting 4 19.4
2020-Sep-27 11:00 19.4
2020-Sep-27 10:50 19.4
2020-Sep-27 10:30 095 0 gusting 2 19.5
2020-Sep-27 10:20 098 1 gusting 5 19.6
2020-Sep-27 10:10 103 2 gusting 3 19.6
2020-Sep-27 10:00 074 2 gusting 3 19.7
2020-Sep-27 09:50 053 1 gusting 3 19.7
2020-Sep-27 09:30 067 0 gusting 2 19.7
2020-Sep-27 09:20 065 0 gusting 2 19.6
2020-Sep-27 09:10 065 1 gusting 3 19.6
2020-Sep-27 09:00 103 1 gusting 2 19.6
2020-Sep-27 08:50 103 0 gusting 2 19.6
2020-Sep-27 08:30 19.6
2020-Sep-27 08:20 19.6
2020-Sep-27 08:10 19.4
2020-Sep-27 08:00 19.4
2020-Sep-27 07:50 19.5
2020-Sep-27 07:30 19.7
2020-Sep-27 07:20 19.7
2020-Sep-27 07:10 19.8
2020-Sep-27 07:00 19.8
2020-Sep-27 06:50 111 1 gusting 3 19.8
2020-Sep-27 06:30 136 0 gusting 3 19.9
2020-Sep-27 06:20 128 0 gusting 3 20.0
2020-Sep-27 06:10 112 0 gusting 6 19.9
2020-Sep-27 06:00 110 0 gusting 3 19.9
2020-Sep-27 05:50 109 0 gusting 6 19.9
2020-Sep-27 05:30 110 1 gusting 5 19.9
2020-Sep-27 05:20 124 1 gusting 6 19.9
2020-Sep-27 05:10 143 1 gusting 6 20.1
2020-Sep-27 05:00 086 0 gusting 4 20.1
2020-Sep-27 04:50 111 3 gusting 3 20.2
2020-Sep-27 04:30 091 1 gusting 3 20.2
2020-Sep-27 04:20 20.3
2020-Sep-27 04:10 091 2 gusting 3 20.3
2020-Sep-27 03:50 092 0 gusting 3 20.2
2020-Sep-27 03:30 113 1 gusting 3 20.3
2020-Sep-27 03:20 112 0 gusting 2 20.3
2020-Sep-27 03:10 20.4
2020-Sep-27 03:00 20.4
2020-Sep-27 02:50 113 0 gusting 2 20.4
2020-Sep-27 02:30 20.4
2020-Sep-27 02:20 20.4
2020-Sep-27 02:10 125 3 gusting 5 20.5
2020-Sep-27 02:00 116 1 gusting 5 20.6
2020-Sep-27 01:50 115 1 gusting 6 20.6
2020-Sep-27 01:30 141 2 gusting 5 20.7
2020-Sep-27 01:20 111 2 gusting 5 20.8
2020-Sep-26 23:00 130 1 gusting 5 21.2
2020-Sep-26 22:00 104 6 gusting 10 21.6
2020-Sep-26 21:50 115 3 gusting 9 21.7
2020-Sep-26 21:30 130 3 gusting 13 21.9
2020-Sep-26 21:20 116 7 gusting 11 21.9
2020-Sep-26 21:10 144 6 gusting 12 22.2
2020-Sep-26 21:00 128 8 gusting 12 22.5
2020-Sep-26 20:50 103 9 gusting 14 23.0
2020-Sep-26 20:30 171 3 gusting 10 22.9
2020-Sep-26 20:20 157 5 gusting 12 22.8
2020-Sep-26 20:10 104 2 gusting 10 23.0
2020-Sep-26 20:00 142 2 gusting 10 23.0
2020-Sep-26 19:50 111 7 gusting 9 22.7
2020-Sep-26 19:30 109 2 gusting 9 23.0
2020-Sep-26 19:20 128 4 gusting 13 22.4
2020-Sep-26 19:10 110 7 gusting 14 22.7
2020-Sep-26 19:00 116 6 gusting 10 22.9
2020-Sep-26 18:50 126 6 gusting 10 23.3
2020-Sep-26 18:30 149 5 gusting 13 23.7
2020-Sep-26 18:20 136 4 gusting 12 23.7
2020-Sep-26 18:10 103 7 gusting 13 23.3
2020-Sep-26 18:00 119 7 gusting 9 22.5
2020-Sep-26 17:50 107 2 gusting 7 22.3
2020-Sep-26 17:30 110 3 gusting 9 21.9
2020-Sep-26 17:10 126 2 gusting 8 21.8
2020-Sep-26 17:00 132 4 gusting 9 22.2
2020-Sep-26 16:50 138 8 gusting 12 22.3
2020-Sep-26 16:30 130 4 gusting 10 22.3
2020-Sep-26 16:20 130 7 gusting 12 22.2
2020-Sep-26 16:10 119 10 gusting 10 22.3
2020-Sep-26 16:00 082 6 gusting 12 22.3
2020-Sep-26 15:50 113 10 gusting 10 22.2
2020-Sep-26 15:30 123 6 gusting 11 22.3
2020-Sep-26 15:20 143 5 gusting 12 22.3
2020-Sep-26 15:10 126 6 gusting 11 22.5
2020-Sep-26 15:00 096 9 gusting 10 22.8
2020-Sep-26 14:50 123 4 gusting 9 22.3
2020-Sep-26 14:30 118 2 gusting 8 22.1
2020-Sep-26 14:20 166 4 gusting 7 21.7
2020-Sep-26 14:10 119 1 gusting 9 21.4
2020-Sep-26 14:00 101 5 gusting 7 21.1